Flag for U.S.A. Weather past 2 weeks in Akron, Ohio, U.S.A.

Now
71 °F

Light rain. Partly cloudy.


Feels Like: 68 °F
Forecast: 70 / 78 °F
Wind: 12 mph from Southwest

Location: Akron Fulton International Airport

Current Time: Aug 31, 2014 at 7:09:04 AM

Latest Report: Aug 31, 2014 at 5:54 AM


Visibility: 8 mi

Pressure: 29.98 "Hg

Humidity: 90%

Dew point: 68 °F

Location of AkronLocation

Historic Weather in Akron — Graph

°F

Akron temperature yesterday

Maximum temperature yesterday: 88 °F (at 2:54 PM)
Minimum temperature yesterday: 66 °F (at 2:54 AM)
Average temperature yesterday: 77 °F

Past Weeks' High & Low Weather Summary

 TemperatureHumidityPressure
High88 °F (Aug 30, 2:54 PM)93% (Aug 19, 6:54 AM)30.17 "Hg (Aug 19, 6:54 AM)
Low49 °F (Aug 16, 5:54 AM)35% (Aug 29, 5:54 PM)29.79 "Hg (Aug 19, 4:54 PM)
Average73 °F72%30.00 "Hg
* Reported Aug 16 5:54 AM — Aug 31 5:54 AM, Akron, Weather by CustomWeather, © 2014

Note: Actual official high and low records may vary slightly from our data, if they occured in-between our weather recording intervals... More about our weather records

Advertising

Akron weather history for previous 24 hours

 ConditionsComfort  
Time TempWeatherWind HumidityBarometerVisibility
5:54 AM
Aug 31
71 °FLight rain. Partly cloudy.12 mph90%29.98 "Hg8 mi
5:00 AM71 °FLight rain. Fog.10 mph90%30.01 "Hg3 mi
4:54 AM71 °FRain. Fog.8 mph90%29.98 "Hg4 mi
3:54 AM71 °FRain. Fog.10 mph87%30.00 "Hg3 mi
2:54 AM72 °FLight rain. Mostly cloudy.6 mph81%30.01 "Hg9 mi
1:54 AM76 °FOvercast.8 mph72%30.01 "Hg10 mi
12:54 AM79 °FOvercast.9 mph65%30.00 "Hg10 mi
11:54 PM
Aug 30
79 °FPassing clouds.12 mph65%29.98 "Hg10 mi
10:54 PM80 °FPassing clouds.10 mph64%29.98 "Hg10 mi
9:54 PM80 °FMostly cloudy.8 mph64%29.98 "Hg10 mi
8:54 PM81 °FMore clouds than sun.7 mph62%29.97 "Hg10 mi
7:54 PM82 °FPassing clouds.7 mph60%29.96 "Hg10 mi
6:54 PM84 °FPartly sunny.12 mph57%29.96 "Hg10 mi
5:54 PM86 °FSunny.14 mph53%29.95 "Hg10 mi
4:54 PM87 °FScattered clouds.8 mph50%29.98 "Hg10 mi
3:54 PM88 °FPassing clouds.17 mph46%29.99 "Hg10 mi
2:54 PM88 °FPassing clouds.15 mph48%30.00 "Hg10 mi
1:54 PM87 °FSunny.14 mph51%30.01 "Hg10 mi
12:54 PM85 °FSunny.14 mph55%30.03 "Hg10 mi
11:54 AM84 °FSunny.12 mph61%30.03 "Hg10 mi
10:54 AM81 °FSunny.13 mph67%30.05 "Hg10 mi
9:54 AM78 °FSunny.12 mph71%30.06 "Hg10 mi
8:54 AM74 °FSunny.9 mph71%30.06 "Hg10 mi
7:54 AM69 °FSunny.8 mph73%30.06 "Hg10 mi
Weather by CustomWeather, © 2014

See weather overviewHow to use our weather pages